2017-019B

Last updated on Thu Jun 22 2017 00:15:04 GMT+0000 (Coordinated Universal Time)

1 42752U 17019B 17172.57143553 .00002048 00000-0 88197-4 0 9990 2 42752 51.6431 19.0908 0010982 1.2761 358.8245 15.27383365 1960
UTC large
Height (km)
Speed (km/s)
/
Latitude / Longitude
Inclination (degrees)
Orbital Period (minutes)
Azimuth
Elevation
Range (km)
Doppler Factor

Next 0 passes for location: London (51.5072 / 0.1276)

Sorry there are no passes over London.
2017-019B